When you browse on this site, cookies collect data to enhance your experience and personalize the content and advertising you see.
Visit our Privacy Policy to learn more. By continuing to use the site, you agree to this use of cookies and data.

Tiempo cada hora Quillota

Hoy, 9 Julio, Jueves

Tiempo Temperatura Precipitaciones Viento Presión Humedad
00:00 +11°C° 0 mm 1 mps 756 mmHg 77%
01:00 +11°C° 0 mm 1 mps 756 mmHg 76%
02:00 +10°C° 0 mm 1 mps 756 mmHg 74%
03:00 +10°C° 0 mm 1 mps 756 mmHg 73%
04:00 +10°C° 0 mm 1 mps 756 mmHg 71%
05:00 +10°C° 0 mm 1 mps 756 mmHg 71%
06:00 +10°C° 0 mm 1 mps 756 mmHg 70%
07:00 +10°C° 0 mm 1 mps 756 mmHg 69%
08:00 +12°C° 0 mm 1 mps 756 mmHg 64%
09:00 +14°C° 0 mm 1 mps 756 mmHg 58%
10:00 +16°C° 0 mm 1 mps 756 mmHg 52%
11:00 +17°C° 0 mm 2 mps 755 mmHg 50%
12:00 +18°C° 0 mm 2 mps 755 mmHg 48%
13:00 +19°C° 0 mm 2 mps 754 mmHg 46%
14:00 +19°C° 0 mm 2 mps 754 mmHg 52%
15:00 +18°C° 0 mm 2 mps 754 mmHg 58%
16:00 +18°C° 0 mm 1 mps 754 mmHg 65%
17:00 +15°C° 0 mm 1 mps 754 mmHg 68%
18:00 +14°C° 0 mm 1 mps 754 mmHg 71%
19:00 +12°C° 0 mm 1 mps 755 mmHg 74%
20:00 +11°C° 0 mm 1 mps 755 mmHg 72%
21:00 +11°C° 0 mm 1 mps 755 mmHg 71%
22:00 +11°C° 0 mm 1 mps 755 mmHg 69%
23:00 +11°C° 0 mm 1 mps 755 mmHg 67%

Mañana, 10 Julio, Viernes

Tiempo Temperatura Precipitaciones Viento Presión Humedad
00:00 +11°C° 0 mm 1 mps 755 mmHg 65%
01:00 +11°C° 0 mm 1 mps 755 mmHg 62%
02:00 +11°C° 0 mm 1 mps 754 mmHg 64%
03:00 +10°C° 0 mm 1 mps 754 mmHg 65%
04:00 +10°C° 0 mm 1 mps 754 mmHg 66%
05:00 +10°C° 0 mm 1 mps 755 mmHg 65%
06:00 +10°C° 0 mm 1 mps 755 mmHg 63%
07:00 +10°C° 0 mm 1 mps 755 mmHg 62%
08:00 +13°C° 0 mm 2 mps 755 mmHg 57%
09:00 +15°C° 0 mm 2 mps 755 mmHg 53%
10:00 +17°C° 0 mm 2 mps 755 mmHg 48%
11:00 +18°C° 0 mm 2 mps 755 mmHg 47%
12:00 +19°C° 0 mm 2 mps 754 mmHg 46%
13:00 +20°C° 0 mm 2 mps 754 mmHg 44%
14:00 +20°C° 0 mm 2 mps 754 mmHg 52%
15:00 +19°C° 0 mm 2 mps 754 mmHg 59%
16:00 +18°C° 0 mm 2 mps 754 mmHg 67%
17:00 +16°C° 0 mm 2 mps 754 mmHg 70%
18:00 +15°C° 0 mm 1 mps 754 mmHg 73%
19:00 +13°C° 0 mm 1 mps 754 mmHg 76%
20:00 +13°C° 0 mm 1 mps 754 mmHg 74%
21:00 +13°C° 0 mm 1 mps 754 mmHg 72%
22:00 +13°C° 0 mm 1 mps 754 mmHg 70%
23:00 +12°C° 0 mm 1 mps 754 mmHg 68%

Pasado mañana, 11 Julio, Sábado

Tiempo Temperatura Precipitaciones Viento Presión Humedad
00:00 +12°C° 0 mm 1 mps 754 mmHg 67%
01:00 +12°C° 0 mm 1 mps 754 mmHg 66%
02:00 +12°C° 0 mm 1 mps 754 mmHg 65%
03:00 +12°C° 0 mm 1 mps 753 mmHg 65%
04:00 +11°C° 0 mm 1 mps 753 mmHg 64%
05:00 +11°C° 0 mm 1 mps 753 mmHg 64%
06:00 +11°C° 0 mm 1 mps 754 mmHg 64%
07:00 +11°C° 0 mm 1 mps 754 mmHg 64%
08:00 +14°C° 0 mm 1 mps 754 mmHg 59%
09:00 +18°C° 0 mm 1 mps 754 mmHg 53%
10:00 +20°C° 0 mm 1 mps 754 mmHg 47%
11:00 +20°C° 0 mm 2 mps 754 mmHg 47%
12:00 +21°C° 0 mm 2 mps 753 mmHg 46%
13:00 +21°C° 0 mm 2 mps 753 mmHg 45%
14:00 +20°C° 0 mm 2 mps 753 mmHg 52%
15:00 +20°C° 0 mm 2 mps 753 mmHg 58%
16:00 +19°C° 0 mm 2 mps 753 mmHg 64%
17:00 +17°C° 0 mm 2 mps 753 mmHg 67%
18:00 +16°C° 0 mm 2 mps 754 mmHg 70%
19:00 +14°C° 0 mm 2 mps 754 mmHg 73%
20:00 +14°C° 0 mm 2 mps 754 mmHg 70%
21:00 +14°C° 0 mm 2 mps 754 mmHg 68%
22:00 +14°C° 0 mm 2 mps 754 mmHg 65%
23:00 +14°C° 0 mm 2 mps 754 mmHg 65%

12 Julio, Domingo

Tiempo Temperatura Precipitaciones Viento Presión Humedad
00:00 +14°C° 0 mm 2 mps 754 mmHg 64%
01:00 +13°C° 0 mm 2 mps 754 mmHg 63%
02:00 +13°C° 0 mm 2 mps 753 mmHg 63%
03:00 +13°C° 0 mm 2 mps 753 mmHg 63%
04:00 +13°C° 0 mm 2 mps 753 mmHg 64%
05:00 +13°C° 0 mm 2 mps 753 mmHg 60%
06:00 +13°C° 0 mm 2 mps 753 mmHg 57%
07:00 +13°C° 0 mm 2 mps 753 mmHg 54%
08:00 +16°C° 0 mm 2 mps 753 mmHg 50%
09:00 +19°C° 0 mm 2 mps 753 mmHg 46%
10:00 +23°C° 0 mm 2 mps 753 mmHg 41%
11:00 +23°C° 0 mm 2 mps 753 mmHg 40%
12:00 +24°C° 0 mm 2 mps 752 mmHg 39%
13:00 +25°C° 0 mm 2 mps 752 mmHg 38%
14:00 +24°C° 0 mm 2 mps 752 mmHg 45%
15:00 +23°C° 0 mm 2 mps 752 mmHg 52%
16:00 +21°C° 0 mm 2 mps 752 mmHg 59%
17:00 +19°C° 0 mm 2 mps 752 mmHg 59%
18:00 +17°C° 0 mm 2 mps 752 mmHg 59%
19:00 +16°C° 0 mm 2 mps 752 mmHg 58%
20:00 +16°C° 0 mm 2 mps 752 mmHg 55%
21:00 +16°C° 0 mm 2 mps 752 mmHg 51%
22:00 +15°C° 0 mm 2 mps 752 mmHg 48%
23:00 +15°C° 0 mm 2 mps 752 mmHg 47%

13 Julio, Lunes

Tiempo Temperatura Precipitaciones Viento Presión Humedad
00:00 +15°C° 0 mm 2 mps 752 mmHg 47%
01:00 +15°C° 0 mm 2 mps 752 mmHg 47%
02:00 +15°C° 0 mm 2 mps 752 mmHg 47%
03:00 +15°C° 0 mm 2 mps 752 mmHg 47%
04:00 +15°C° 0 mm 2 mps 751 mmHg 47%
05:00 +15°C° 0 mm 2 mps 752 mmHg 46%
06:00 +15°C° 0 mm 2 mps 752 mmHg 46%
07:00 +15°C° 0 mm 2 mps 752 mmHg 45%
08:00 +19°C° 0 mm 1 mps 752 mmHg 41%
09:00 +22°C° 0 mm 1 mps 753 mmHg 37%
10:00 +25°C° 0 mm 1 mps 753 mmHg 32%
11:00 +26°C° 0 mm 1 mps 752 mmHg 33%
12:00 +26°C° 0 mm 1 mps 752 mmHg 34%
13:00 +26°C° 0 mm 1 mps 752 mmHg 35%
14:00 +25°C° 0 mm 1 mps 752 mmHg 44%
15:00 +23°C° 0 mm 1 mps 752 mmHg 53%
16:00 +22°C° 0 mm 1 mps 752 mmHg 62%
17:00 +20°C° 0 mm 1 mps 752 mmHg 65%
18:00 +18°C° 0 mm 1 mps 752 mmHg 69%
19:00 +15°C° 0 mm 1 mps 752 mmHg 72%
20:00 +14°C° 0 mm 1 mps 752 mmHg 72%
21:00 +14°C° 0 mm 1 mps 752 mmHg 72%
22:00 +14°C° 0 mm 1 mps 752 mmHg 72%
23:00 +13°C° 0 mm 1 mps 752 mmHg 71%

14 Julio, Martes

Tiempo Temperatura Precipitaciones Viento Presión Humedad
00:00 +13°C° 0 mm 1 mps 752 mmHg 71%
01:00 +13°C° 0 mm 1 mps 752 mmHg 71%
02:00 +13°C° 0 mm 1 mps 752 mmHg 71%
03:00 +12°C° 0 mm 1 mps 751 mmHg 72%
04:00 +12°C° 0 mm 1 mps 751 mmHg 72%
05:00 +12°C° 0 mm 1 mps 751 mmHg 74%
06:00 +12°C° 0 mm 1 mps 751 mmHg 75%
07:00 +12°C° 0 mm 1 mps 752 mmHg 77%
08:00 +12°C° 0 mm 0 mps 752 mmHg 73%
09:00 +14°C° 0 mm 0 mps 752 mmHg 70%
10:00 +16°C° 0 mm 0 mps 752 mmHg 66%
11:00 +18°C° 0 mm 1 mps 752 mmHg 67%
12:00 +19°C° 0 mm 1 mps 751 mmHg 67%
13:00 +18°C° 0 mm 2 mps 751 mmHg 68%
14:00 +19°C° 0 mm 1 mps 751 mmHg 72%
15:00 +18°C° 0 mm 1 mps 751 mmHg 76%
16:00 +16°C° 0 mm 1 mps 751 mmHg 80%
17:00 +15°C° 0 mm 1 mps 751 mmHg 85%
18:00 +12°C° 0 mm 0 mps 751 mmHg 89%
19:00 +11°C° 0 mm 0 mps 751 mmHg 94%
20:00 +11°C° 0 mm 0 mps 751 mmHg 94%
21:00 +11°C° 0 mm 0 mps 752 mmHg 94%
22:00 +11°C° 0 mm 0 mps 752 mmHg 95%
23:00 +11°C° 0 mm 0 mps 752 mmHg 94%
Mostrar más